Location: Unspecified
(0.0000°N, 0.0000°E)
Time: 15:26:43
(UTC+00:00)

Vanguard 2 - Visible Passes

Search period start: 16 September 2014 00:00
Search period end: 26 September 2014 00:00
Orbit: 553 x 2948 km, 32.9° (Epoch: 15 September)

Date Brightness Start Highest point End Pass type
(mag) Time Alt. Az. Time Alt. Az. Time Alt. Az.
16 Sep 10.0 02:59:56 43° N 02:59:56 43° N 03:10:38 10° NE visible
16 Sep 10.9 05:01:44 10° WNW 05:11:04 23° NNW 05:22:55 10° NNE visible
17 Sep 11.5 01:16:49 11° ENE 01:16:49 11° ENE 01:17:06 10° ENE visible
17 Sep 10.1 03:18:21 36° NNW 03:18:21 36° NNW 03:29:49 10° NE visible
17 Sep 11.1 05:23:23 10° NW 05:31:59 19° NNW 05:42:20 10° NNE visible
18 Sep 11.3 01:35:12 14° NE 01:35:12 14° NE 01:36:48 10° NE visible
18 Sep 10.4 03:36:44 27° NNW 03:37:23 27° NNW 03:48:52 10° NNE visible
19 Sep 11.1 01:53:33 17° NE 01:53:33 17° NE 01:56:10 10° NE visible
19 Sep 10.6 03:55:05 19° NNW 03:57:53 21° NNW 04:07:53 10° NNE visible
20 Sep 11.0 02:11:52 19° NNE 02:11:52 19° NNE 02:15:18 10° NE visible
20 Sep 10.8 04:13:24 13° NW 04:18:37 17° N 04:26:58 10° NNE visible
21 Sep 10.9 02:30:10 18° NNE 02:30:10 18° NNE 02:34:12 10° NNE visible
21 Sep 11.1 04:33:51 10° NNW 04:39:35 14° N 04:46:20 10° NNE visible
22 Sep 10.9 02:48:26 17° N 02:48:26 17° N 02:52:55 10° NNE visible
22 Sep 11.3 04:55:43 10° NNW 05:00:46 13° N 05:06:27 10° NNE visible
23 Sep 11.0 03:06:41 14° N 03:06:41 14° N 03:11:26 10° NNE visible
23 Sep 11.4 05:16:44 10° NNW 05:22:02 13° N 05:27:57 10° NNE visible
24 Sep 11.0 03:24:56 11° NNW 03:26:40 11° N 03:29:32 10° N visible
